Location: Beuvrequen
(50.8014°N, 1.6652°E)
Time: 19:44:11
(UTC+00:00)

Meteor 1-22 Rocket - Pass Details

Date: 16 October 2021
Orbit: 787 x 941 km, 81.2° (Epoch: 04 December)

Event Time Altitude Azimuth Distance (km) Brightness Sun altitude
Rises 17:22:36 0° 188° (S) 3,521 7.7 -4.5°
Reaches altitude 10° 17:25:02 10° 188° (S) 2,602 7.0 -4.9°
Maximum altitude 17:31:01 85° 101° (E) 944 4.5 -5.9°
Drops below altitude 10° 17:37:10 10° 13° (NNE) 2,669 6.6 -6.8°
Sets 17:39:41 0° 14° (NNE) 3,618 7.3 -7.2°
